Time,TemperatureF,DewpointF,PressureIn,WindDirection,WindDirectionDegrees,WindSpeedMPH,WindSpeedGustMPH,Humidity,HourlyPrecipIn,Conditions,Clouds,dailyrainin,SoftwareType,DateUTC
2013-03-04 00:01:00,62.0,42.0,29.76,SE,132,10.0,22.0,48,0.00,,,0.00,,2013-03-04 06:01:00,
2013-03-04 00:11:00,62.0,42.0,29.76,SE,132,10.0,22.0,48,0.00,,,0.00,,2013-03-04 06:11:00,
2013-03-04 00:21:00,62.0,43.0,29.75,SE,131,11.0,22.0,49,0.00,,,0.00,,2013-03-04 06:21:00,
2013-03-04 00:31:00,61.0,43.0,29.75,SE,144,11.0,22.0,51,0.00,,,0.00,,2013-03-04 06:31:00,
2013-03-04 00:42:00,61.0,43.0,29.75,SE,144,11.0,22.0,51,0.00,,,0.00,,2013-03-04 06:42:00,
2013-03-04 00:52:00,61.0,44.0,29.74,WSW,253,9.0,26.0,53,0.00,,,0.00,,2013-03-04 06:52:00,
2013-03-04 01:01:00,60.0,43.0,29.73,SE,138,10.0,24.0,54,0.00,,,0.00,,2013-03-04 07:01:00,
2013-03-04 01:11:00,60.0,43.0,29.73,SE,138,10.0,24.0,54,0.00,,,0.00,,2013-03-04 07:11:00,
2013-03-04 01:21:00,60.0,43.0,29.73,SSW,197,9.0,23.0,54,0.00,,,0.00,,2013-03-04 07:21:00,
2013-03-04 01:32:00,60.0,43.0,29.73,SSE,155,9.0,23.0,54,0.00,,,0.00,,2013-03-04 07:32:00,
2013-03-04 01:41:00,60.0,43.0,29.73,SSE,155,9.0,23.0,54,0.00,,,0.00,,2013-03-04 07:41:00,
2013-03-04 01:52:00,60.0,44.0,29.73,SSE,160,9.0,22.0,55,0.00,,,0.00,,2013-03-04 07:52:00,
2013-03-04 02:02:00,59.0,43.0,29.72,ENE,70,7.0,19.0,56,0.00,,,0.00,,2013-03-04 08:02:00,
2013-03-04 02:11:00,59.0,43.0,29.72,ENE,70,7.0,19.0,56,0.00,,,0.00,,2013-03-04 08:11:00,
2013-03-04 02:21:00,59.0,43.0,29.72,SE,131,8.0,19.0,56,0.00,,,0.00,,2013-03-04 08:21:00,
2013-03-04 02:32:00,59.0,43.0,29.71,ENE,70,10.0,23.0,56,0.00,,,0.00,,2013-03-04 08:32:00,
2013-03-04 02:41:00,59.0,43.0,29.71,ENE,70,10.0,23.0,56,0.00,,,0.00,,2013-03-04 08:41:00,
2013-03-04 02:52:00,58.0,43.0,29.71,SE,131,11.0,20.0,57,0.00,,,0.00,,2013-03-04 08:52:00,
2013-03-04 03:01:00,58.0,43.0,29.70,South,183,9.0,27.0,57,0.00,,,0.00,,2013-03-04 09:01:00,
2013-03-04 03:11:00,58.0,43.0,29.70,South,183,9.0,27.0,57,0.00,,,0.00,,2013-03-04 09:11:00,
2013-03-04 03:21:00,58.0,43.0,29.70,East,86,9.0,23.0,57,0.00,,,0.00,,2013-03-04 09:21:00,
2013-03-04 03:32:00,58.0,43.0,29.69,SSE,158,11.0,22.0,57,0.00,,,0.00,,2013-03-04 09:32:00,
2013-03-04 03:42:00,58.0,43.0,29.69,SSE,158,11.0,22.0,57,0.00,,,0.00,,2013-03-04 09:42:00,
2013-03-04 03:52:00,57.0,42.0,29.69,SW,220,8.0,22.0,58,0.00,,,0.00,,2013-03-04 09:52:00,
2013-03-04 04:01:00,57.0,43.0,29.69,SE,141,7.0,18.0,59,0.00,,,0.00,,2013-03-04 10:01:00,
2013-03-04 04:11:00,57.0,43.0,29.69,SE,141,7.0,18.0,59,0.00,,,0.00,,2013-03-04 10:11:00,
2013-03-04 04:21:00,57.0,43.0,29.70,SSE,155,6.0,20.0,59,0.00,,,0.00,,2013-03-04 10:21:00,
2013-03-04 04:31:00,57.0,43.0,29.69,SSW,198,8.0,18.0,60,0.00,,,0.00,,2013-03-04 10:31:00,
2013-03-04 04:42:00,57.0,43.0,29.69,SSW,198,8.0,18.0,60,0.00,,,0.00,,2013-03-04 10:42:00,
2013-03-04 04:52:00,57.0,44.0,29.70,SSW,200,7.0,18.0,61,0.00,,,0.00,,2013-03-04 10:52:00,
2013-03-04 05:01:00,57.0,44.0,29.70,South,173,8.0,18.0,61,0.00,,,0.00,,2013-03-04 11:01:00,
2013-03-04 05:11:00,57.0,44.0,29.70,South,173,8.0,18.0,61,0.00,,,0.00,,2013-03-04 11:11:00,
2013-03-04 05:21:00,56.0,43.0,29.70,South,191,9.0,20.0,62,0.00,,,0.00,,2013-03-04 11:21:00,
2013-03-04 05:32:00,56.0,43.0,29.69,ESE,122,9.0,20.0,62,0.00,,,0.00,,2013-03-04 11:32:00,
2013-03-04 05:42:00,56.0,43.0,29.69,ESE,122,9.0,20.0,62,0.00,,,0.00,,2013-03-04 11:42:00,
2013-03-04 05:52:00,56.0,43.0,29.69,SSW,207,9.0,20.0,62,0.00,,,0.00,,2013-03-04 11:52:00,
2013-03-04 06:01:00,56.0,43.0,29.68,SSE,162,7.0,18.0,62,0.00,,,0.00,,2013-03-04 12:01:00,
2013-03-04 06:11:00,56.0,43.0,29.68,SSE,162,7.0,18.0,62,0.00,,,0.00,,2013-03-04 12:11:00,
2013-03-04 06:22:00,56.0,44.0,29.67,SSW,211,7.0,16.0,63,0.00,,,0.00,,2013-03-04 12:22:00,
2013-03-04 06:32:00,56.0,44.0,29.67,WSW,250,7.0,19.0,63,0.00,,,0.00,,2013-03-04 12:32:00,
2013-03-04 06:42:00,56.0,44.0,29.67,WSW,250,7.0,19.0,63,0.00,,,0.00,,2013-03-04 12:42:00,
2013-03-04 06:53:00,56.0,43.0,29.67,SE,132,8.0,19.0,62,0.00,,,0.00,,2013-03-04 12:53:00,
2013-03-04 07:02:00,56.0,44.0,29.67,South,188,10.0,19.0,63,0.00,,,0.00,,2013-03-04 13:02:00,
2013-03-04 07:11:00,56.0,44.0,29.67,South,188,10.0,19.0,63,0.00,,,0.00,,2013-03-04 13:11:00,
2013-03-04 07:21:00,56.0,44.0,29.67,SE,146,6.0,16.0,63,0.00,,,0.00,,2013-03-04 13:21:00,
2013-03-04 07:32:00,56.0,44.0,29.67,SW,217,9.0,19.0,64,0.00,,,0.00,,2013-03-04 13:32:00,
2013-03-04 07:41:00,56.0,44.0,29.67,SW,217,9.0,19.0,64,0.00,,,0.00,,2013-03-04 13:41:00,
2013-03-04 07:52:00,56.0,44.0,29.67,SSW,205,7.0,18.0,64,0.00,,,0.00,,2013-03-04 13:52:00,
2013-03-04 08:01:00,57.0,45.0,29.67,South,177,8.0,18.0,64,0.00,,,0.00,,2013-03-04 14:01:00,
2013-03-04 08:11:00,57.0,45.0,29.67,South,177,8.0,18.0,64,0.00,,,0.00,,2013-03-04 14:11:00,
2013-03-04 08:22:00,57.0,45.0,29.67,SE,132,9.0,21.0,63,0.00,,,0.00,,2013-03-04 14:22:00,
2013-03-04 08:32:00,57.0,45.0,29.66,SSW,211,9.0,20.0,63,0.00,,,0.00,,2013-03-04 14:32:00,
2013-03-04 08:42:00,57.0,45.0,29.66,SSW,211,9.0,20.0,63,0.00,,,0.00,,2013-03-04 14:42:00,
2013-03-04 08:52:00,58.0,45.0,29.67,SE,135,9.0,16.0,62,0.00,,,0.00,,2013-03-04 14:52:00,
2013-03-04 09:01:00,58.0,45.0,29.67,SSW,198,9.0,19.0,61,0.00,,,0.00,,2013-03-04 15:01:00,
2013-03-04 09:11:00,58.0,45.0,29.67,SSW,198,9.0,19.0,61,0.00,,,0.00,,2013-03-04 15:11:00,
2013-03-04 09:21:00,59.0,45.0,29.67,SSW,212,7.0,18.0,60,0.00,,,0.00,,2013-03-04 15:21:00,
2013-03-04 09:32:00,60.0,45.0,29.67,WSW,239,9.0,23.0,58,0.00,,,0.00,,2013-03-04 15:32:00,
2013-03-04 09:42:00,60.0,45.0,29.67,WSW,239,9.0,23.0,58,0.00,,,0.00,,2013-03-04 15:42:00,
2013-03-04 09:52:00,60.0,45.0,29.67,WSW,239,9.0,23.0,58,0.00,,,0.00,,2013-03-04 15:52:00,
2013-03-04 10:02:00,63.0,46.0,29.66,SSW,205,12.0,22.0,53,0.00,,,0.00,,2013-03-04 16:02:00,
2013-03-04 10:11:00,63.0,46.0,29.66,SSW,205,12.0,22.0,53,0.00,,,0.00,,2013-03-04 16:11:00,
2013-03-04 10:21:00,64.0,45.0,29.66,SSW,201,11.0,21.0,50,0.00,,,0.00,,2013-03-04 16:21:00,
2013-03-04 10:32:00,65.0,44.0,29.66,SW,217,8.0,18.0,47,0.00,,,0.00,,2013-03-04 16:32:00,
2013-03-04 10:42:00,65.0,44.0,29.66,SW,217,8.0,18.0,47,0.00,,,0.00,,2013-03-04 16:42:00,
2013-03-04 10:52:00,65.0,43.0,29.66,South,177,9.0,16.0,45,0.00,,,0.00,,2013-03-04 16:52:00,
2013-03-04 11:02:00,66.0,43.0,29.66,SW,226,8.0,16.0,44,0.00,,,0.00,,2013-03-04 17:02:00,
2013-03-04 11:11:00,66.0,43.0,29.66,SW,226,8.0,16.0,44,0.00,,,0.00,,2013-03-04 17:11:00,
2013-03-04 11:22:00,68.0,43.0,29.65,South,190,6.0,15.0,41,0.00,,,0.00,,2013-03-04 17:22:00,
2013-03-04 11:32:00,71.0,42.0,29.65,South,181,12.0,18.0,35,0.00,,,0.00,,2013-03-04 17:32:00,
2013-03-04 11:42:00,71.0,42.0,29.65,South,181,12.0,18.0,35,0.00,,,0.00,,2013-03-04 17:42:00,
2013-03-04 11:52:00,72.0,42.0,29.64,SW,225,10.0,19.0,34,0.00,,,0.00,,2013-03-04 17:52:00,
2013-03-04 12:01:00,74.0,41.0,29.64,South,169,10.0,19.0,30,0.00,,,0.00,,2013-03-04 18:01:00,
2013-03-04 12:11:00,74.0,41.0,29.64,South,169,10.0,19.0,30,0.00,,,0.00,,2013-03-04 18:11:00,
2013-03-04 12:21:00,76.0,40.0,29.63,SW,221,12.0,20.0,27,0.00,,,0.00,,2013-03-04 18:21:00,
2013-03-04 12:32:00,77.0,39.0,29.62,SW,214,11.0,23.0,26,0.00,,,0.00,,2013-03-04 18:32:00,
2013-03-04 12:42:00,77.0,39.0,29.62,SW,214,11.0,23.0,26,0.00,,,0.00,,2013-03-04 18:42:00,
2013-03-04 12:52:00,78.0,39.0,29.62,SSW,200,12.0,20.0,25,0.00,,,0.00,,2013-03-04 18:52:00,
2013-03-04 13:01:00,79.0,38.0,29.61,WSW,238,10.0,21.0,23,0.00,,,0.00,,2013-03-04 19:01:00,
2013-03-04 13:11:00,79.0,38.0,29.61,WSW,238,10.0,21.0,23,0.00,,,0.00,,2013-03-04 19:11:00,
2013-03-04 13:22:00,80.0,37.0,29.60,SSW,203,14.0,21.0,21,0.00,,,0.00,,2013-03-04 19:22:00,
2013-03-04 13:32:00,81.0,36.0,29.59,SSW,210,8.0,19.0,20,0.00,,,0.00,,2013-03-04 19:32:00,
2013-03-04 13:42:00,81.0,36.0,29.59,SSW,210,8.0,19.0,20,0.00,,,0.00,,2013-03-04 19:42:00,
2013-03-04 13:52:00,82.0,36.0,29.58,SSE,163,12.0,19.0,19,0.00,,,0.00,,2013-03-04 19:52:00,
2013-03-04 14:01:00,83.0,34.0,29.57,SSW,203,11.0,21.0,17,0.00,,,0.00,,2013-03-04 20:01:00,
2013-03-04 14:11:00,83.0,34.0,29.57,SSW,203,11.0,21.0,17,0.00,,,0.00,,2013-03-04 20:11:00,
2013-03-04 14:22:00,83.0,34.0,29.57,SSW,203,11.0,21.0,17,0.00,,,0.00,,2013-03-04 20:22:00,
2013-03-04 14:32:00,85.0,34.0,29.56,South,190,11.0,20.0,16,0.00,,,0.00,,2013-03-04 20:32:00,
2013-03-04 14:42:00,85.0,34.0,29.56,South,190,11.0,20.0,16,0.00,,,0.00,,2013-03-04 20:42:00,
2013-03-04 14:52:00,85.0,34.0,29.57,WSW,240,10.0,20.0,16,0.00,,,0.00,,2013-03-04 20:52:00,
2013-03-04 15:02:00,85.0,35.0,29.57,WSW,252,8.0,17.0,17,0.00,,,0.00,,2013-03-04 21:02:00,
2013-03-04 15:11:00,85.0,35.0,29.57,WSW,252,8.0,17.0,17,0.00,,,0.00,,2013-03-04 21:11:00,
2013-03-04 15:22:00,85.0,34.0,29.56,SW,219,9.0,17.0,16,0.00,,,0.00,,2013-03-04 21:22:00,
2013-03-04 15:32:00,86.0,35.0,29.56,WSW,239,8.0,16.0,16,0.00,,,0.00,,2013-03-04 21:32:00,
2013-03-04 15:42:00,86.0,35.0,29.56,WSW,239,8.0,16.0,16,0.00,,,0.00,,2013-03-04 21:42:00,
2013-03-04 15:53:00,86.0,35.0,29.55,SW,215,11.0,18.0,16,0.00,,,0.00,,2013-03-04 21:53:00,
2013-03-04 16:01:00,86.0,35.0,29.55,SW,221,8.0,20.0,16,0.00,,,0.00,,2013-03-04 22:01:00,
2013-03-04 16:12:00,86.0,35.0,29.55,SW,221,8.0,20.0,16,0.00,,,0.00,,2013-03-04 22:12:00,
2013-03-04 16:22:00,87.0,34.0,29.55,South,187,9.0,15.0,15,0.00,,,0.00,,2013-03-04 22:22:00,
2013-03-04 16:32:00,87.0,34.0,29.54,SSW,195,10.0,15.0,15,0.00,,,0.00,,2013-03-04 22:32:00,
2013-03-04 16:42:00,87.0,34.0,29.54,SSW,195,10.0,15.0,15,0.00,,,0.00,,2013-03-04 22:42:00,
2013-03-04 16:52:00,87.0,34.0,29.54,SSW,208,10.0,16.0,15,0.00,,,0.00,,2013-03-04 22:52:00,
2013-03-04 17:01:00,86.0,33.0,29.54,SSW,212,6.0,18.0,15,0.00,,,0.00,,2013-03-04 23:01:00,
2013-03-04 17:11:00,86.0,33.0,29.54,SSW,212,6.0,18.0,15,0.00,,,0.00,,2013-03-04 23:11:00,
2013-03-04 17:22:00,86.0,33.0,29.54,SSW,195,9.0,15.0,15,0.00,,,0.00,,2013-03-04 23:22:00,
2013-03-04 17:32:00,86.0,33.0,29.55,SSW,210,8.0,15.0,15,0.00,,,0.00,,2013-03-04 23:32:00,
2013-03-04 17:42:00,86.0,33.0,29.55,SSW,210,8.0,15.0,15,0.00,,,0.00,,2013-03-04 23:42:00,
2013-03-04 17:52:00,85.0,34.0,29.55,SSW,205,7.0,18.0,16,0.00,,,0.00,,2013-03-04 23:52:00,
2013-03-04 18:02:00,84.0,33.0,29.55,WSW,250,8.0,16.0,16,0.00,,,0.00,,2013-03-05 00:02:00,
2013-03-04 18:11:00,84.0,33.0,29.55,WSW,250,8.0,16.0,16,0.00,,,0.00,,2013-03-05 00:11:00,
2013-03-04 18:21:00,82.0,34.0,29.55,South,185,5.0,11.0,18,0.00,,,0.00,,2013-03-05 00:21:00,
2013-03-04 18:32:00,81.0,36.0,29.56,ESE,121,5.0,10.0,20,0.00,,,0.00,,2013-03-05 00:32:00,
2013-03-04 18:42:00,81.0,36.0,29.56,ESE,121,5.0,10.0,20,0.00,,,0.00,,2013-03-05 00:42:00,
2013-03-04 18:52:00,79.0,48.0,29.57,ESE,117,6.0,13.0,34,0.00,,,0.00,,2013-03-05 00:52:00,
2013-03-04 19:01:00,78.0,45.0,29.57,SW,225,6.0,15.0,31,0.00,,,0.00,,2013-03-05 01:01:00,
2013-03-04 19:12:00,78.0,45.0,29.57,SW,225,6.0,15.0,31,0.00,,,0.00,,2013-03-05 01:12:00,
2013-03-04 19:22:00,77.0,45.0,29.57,SSE,152,4.0,14.0,32,0.00,,,0.00,,2013-03-05 01:22:00,
2013-03-04 19:32:00,77.0,47.0,29.57,SSE,152,4.0,14.0,35,0.00,,,0.00,,2013-03-05 01:32:00,
2013-03-04 19:41:00,77.0,47.0,29.57,SSE,152,4.0,14.0,35,0.00,,,0.00,,2013-03-05 01:41:00,
2013-03-04 19:52:00,76.0,49.0,29.58,SSE,167,5.0,15.0,38,0.00,,,0.00,,2013-03-05 01:52:00,
2013-03-04 20:01:00,75.0,48.0,29.58,WSW,248,3.0,8.0,39,0.00,,,0.00,,2013-03-05 02:01:00,
2013-03-04 20:11:00,75.0,48.0,29.58,WSW,248,3.0,8.0,39,0.00,,,0.00,,2013-03-05 02:11:00,
2013-03-04 20:22:00,74.0,49.0,29.59,SE,125,0.0,7.0,41,0.00,,,0.00,,2013-03-05 02:22:00,
2013-03-04 20:32:00,73.0,49.0,29.59,NE,44,0.0,1.0,43,0.00,,,0.00,,2013-03-05 02:32:00,
2013-03-04 20:42:00,73.0,49.0,29.59,NE,44,0.0,1.0,43,0.00,,,0.00,,2013-03-05 02:42:00,
2013-03-04 20:52:00,72.0,49.0,29.60,North,1,0.0,1.0,44,0.00,,,0.00,,2013-03-05 02:52:00,
2013-03-04 21:02:00,71.0,49.0,29.62,WNW,283,0.0,4.0,45,0.00,,,0.00,,2013-03-05 03:02:00,
2013-03-04 21:12:00,71.0,49.0,29.62,WNW,283,0.0,4.0,45,0.00,,,0.00,,2013-03-05 03:12:00,
2013-03-04 21:22:00,71.0,49.0,29.62,NW,314,0.0,1.0,46,0.00,,,0.00,,2013-03-05 03:22:00,
2013-03-04 21:32:00,70.0,48.0,29.63,NW,323,0.0,1.0,46,0.00,,,0.00,,2013-03-05 03:32:00,
2013-03-04 21:42:00,70.0,48.0,29.63,NW,323,0.0,1.0,46,0.00,,,0.00,,2013-03-05 03:42:00,
2013-03-04 21:52:00,69.0,48.0,29.63,ESE,117,1.0,3.0,48,0.00,,,0.00,,2013-03-05 03:52:00,
2013-03-04 22:01:00,69.0,49.0,29.65,NNW,343,3.0,7.0,49,0.00,,,0.00,,2013-03-05 04:01:00,
2013-03-04 22:11:00,69.0,49.0,29.65,NNW,343,3.0,7.0,49,0.00,,,0.00,,2013-03-05 04:11:00,
2013-03-04 22:21:00,69.0,49.0,29.65,NNW,343,3.0,7.0,49,0.00,,,0.00,,2013-03-05 04:21:00,
2013-03-04 22:32:00,69.0,49.0,29.65,NNW,343,3.0,7.0,49,0.00,,,0.00,,2013-03-05 04:32:00,
2013-03-04 22:42:00,69.0,49.0,29.65,NNW,343,3.0,7.0,49,0.00,,,0.00,,2013-03-05 04:42:00,
2013-03-04 22:51:00,64.0,43.0,29.67,North,351,8.0,19.0,47,0.00,,,0.00,,2013-03-05 04:51:00,
2013-03-04 23:02:00,65.0,44.0,29.70,NNE,19,10.0,18.0,46,0.00,,,0.00,,2013-03-05 05:02:00,
2013-03-04 23:12:00,65.0,44.0,29.70,NNE,19,10.0,18.0,46,0.00,,,0.00,,2013-03-05 05:12:00,
2013-03-04 23:22:00,66.0,45.0,29.72,North,357,14.0,27.0,46,0.00,,,0.00,,2013-03-05 05:22:00,
2013-03-04 23:31:00,64.0,44.0,29.74,North,7,12.0,24.0,49,0.00,,,0.00,,2013-03-05 05:31:00,
2013-03-04 23:42:00,64.0,44.0,29.74,North,7,12.0,24.0,49,0.00,,,0.00,,2013-03-05 05:42:00,
2013-03-04 23:52:00,62.0,45.0,29.75,NNW,343,13.0,21.0,54,0.00,,,0.00,,2013-03-05 05:52:00,